Starlink 5448

operational
NORAD ID: 54770 Int'l Des: 2022-175 Owner: SPXS Country: US Constellation: starlink
LEOCIRCULAR

Starlink 5448について

説明を読み込み中...

リアルタイム位置

3D地球を読み込み中...

次回通過

高度履歴

Altitude vs Time

uPlot chart will show altitude changes over time

軌道要素

1 54770U 22175N 25352.52369927 .00000146 00000-0 27237-4 0 9996
2 54770 53.2190 33.6713 0001396 85.5698 274.5454 15.08844715167871
Epoch: Dec 18, 2025 • Age: 8 hours

現在のステータス

高度 544.9 km
速度 7.60 km/s
衛星直下点 51.21°N, 59.25°E
打ち上げ日 Dec 17, 2022
運用期間 3 years
タイプ internet

技術仕様

分類 Payload
質量 305.00 kg
乾燥質量 290.00 kg
総質量 305.00 kg
長さ 0.20 m
直径 2.80 m
スパン 9.00 m
形状 Box + pan
製造者 SPXS
バスタイプ Starlink
フェーズステータス In Orbit
所有者/国 SPXS/US

大規模コンステレーション

Loading constellations...